This is the latest recevied weather packets stored in our database for station/object W1LBM. If no packets are shown the sender has not sent any weather packets the latest 10 day(s).
| Time | Temp. | Humidity | Pressure | Rain* | Wind** | Luminosity | Snow |
|---|---|---|---|---|---|---|---|
| 1777932953 | 18.89° C | 43% | 1011.7 hPa | 0 mm | - | 61 W/m² | - |
| 1777932650 | 18.89° C | 43% | 1011.6 hPa | 0 mm | - | 58 W/m² | - |
| 1777932346 | 18.89° C | 42% | 1011.5 hPa | 0 mm | - | 47 W/m² | - |
| 1777932043 | 19.44° C | 43% | 1011.5 hPa | 0 mm | - | 86 W/m² | - |
| 1777931740 | 18.89° C | 43% | 1011.6 hPa | 0 mm | - | 85 W/m² | - |
| 1777931438 | 19.44° C | 43% | 1011.6 hPa | 0 mm | - | 116 W/m² | - |
| 1777931133 | 19.44° C | 42% | 1011.6 hPa | 0 mm | - | 100 W/m² | - |
| 1777930830 | 18.89° C | 42% | 1011.5 hPa | 0 mm | - | 116 W/m² | - |
| 1777930526 | 19.44° C | 42% | 1011.5 hPa | 0 mm | - | 54 W/m² | - |
| 1777930224 | 20° C | 41% | 1011.5 hPa | 0 mm | - | 141 W/m² | - |
| 1777929919 | 19.44° C | 41% | 1011.3 hPa | 0 mm | - | 55 W/m² | - |
| 1777929617 | 20° C | 40% | 1011.3 hPa | 0 mm | - | 156 W/m² | - |
| 1777929314 | 19.44° C | 41% | 1011.4 hPa | 0 mm | - | 97 W/m² | - |
| 1777929011 | 20° C | 39% | 1011.4 hPa | 0 mm | - | 244 W/m² | - |
| 1777928708 | 20° C | 39% | 1011.2 hPa | 0 mm | - | 297 W/m² | - |
| 1777928404 | 20.56° C | 38% | 1011.2 hPa | 0 mm | - | 311 W/m² | - |
| 1777928102 | 20° C | 40% | 1011.3 hPa | 0 mm | - | 137 W/m² | - |
| 1777927800 | 20° C | 39% | 1011.2 hPa | 0 mm | - | 127 W/m² | - |
| 1777927498 | 20° C | 39% | 1011.3 hPa | 0 mm | - | 130 W/m² | - |
| 1777927197 | 20° C | 39% | 1011.1 hPa | 0 mm | - | 102 W/m² | - |
| 1777926894 | 20° C | 38% | 1011.2 hPa | 0 mm | - | 138 W/m² | - |
| 1777926590 | 20.56° C | 37% | 1011 hPa | 0 mm | - | 188 W/m² | - |
| 1777926287 | 21.11° C | 35% | 1011 hPa | 0 mm | - | 261 W/m² | - |
| 1777925984 | 20.56° C | 35% | 1011.3 hPa | 0 mm | - | 142 W/m² | - |
| 1777925681 | 20.56° C | 35% | 1011.3 hPa | 0 mm | - | 231 W/m² | - |
* Rain latest hour (hover to see other rain measurements)
** Current wind speed in m/s (hover to see current wind gust speed)